Location: Montseny
(41.7591°N, 2.3951°E)
Time: 21:37:33
(UTC+00:00)

Daily predictions for brighter satellites

Satellite Brightness Start Highest point End
(mag) Time Altitude Azimuth Time Altitude Azimuth Time Altitude Azimuth
Cosmos 1844 4.3 18:03:39 10° SSE 18:08:41 34° ESE 18:13:43 10° NE
ISS -1.9 18:06:58 10° W 18:09:54 27° NNW 18:12:51 10° NE
NOSS 3-4 (A) 4.4 18:05:40 10° SSE 18:10:03 22° ESE 18:14:36 10° ENE
NOSS 3-4 (C) 4.4 18:05:49 10° SSE 18:10:10 22° ESE 18:14:41 10° ENE
SL-24 R/B 4.5 18:12:27 10° S 18:16:51 77° WSW 18:21:40 10° NNW
Cosmos 1300 Rocket 3.8 18:13:50 10° SSE 18:18:01 45° E 18:22:16 10° NNE
Sich 1 Rocket 3.6 18:17:48 10° S 18:22:18 84° E 18:26:53 10° N
Cosmos 2298 Rocket 4.0 18:19:06 10° S 18:24:22 67° ESE 18:29:40 10° NNE
CENTAUR R/B 3.6 18:18:38 10° NNW 18:26:20 47° NE 18:34:44 10° ESE
Iridium 4 Rocket 4.3 18:21:38 10° SSW 18:26:40 60° W 18:32:12 10° N
CSL-04 Debris 4.2 18:23:42 10° SSE 18:28:57 57° ENE 18:34:14 10° N
Helios 1A Rocket 3.9 18:26:48 10° S 18:30:47 52° W 18:34:51 10° NNW
CSL-04 Rocket 3.8 18:25:37 10° SSE 18:30:54 57° ENE 18:36:19 10° N
ATLAS 2AS CENTAUR R/B 3.5 18:25:15 10° S 18:32:16 37° ESE 18:39:19 10° NE
Okean 2 Rocket 3.0 18:28:05 10° S 18:32:32 69° E 18:36:59 10° NNE
YAOGAN 1 2.5 18:29:12 10° SSE 18:33:31 86° ENE 18:37:52 10° NNW
Cosmos 1025 Rocket 3.1 18:31:32 10° N 18:35:52 56° E 18:40:11 10° SSE
ATLAS 3B R/B 4.1 18:32:53 10° NNW 18:38:02 22° NNE 18:42:35 12° ENE
Cosmos 1513 Rocket 4.4 18:33:44 10° S 18:39:58 81° E 18:46:09 10° N
Abrixas rocket 3.2 18:38:06 10° NW 18:40:39 28° NNE 18:42:11 17° ENE
CREW DRAGON DEMO-1 DEB 4.2 18:40:11 10° NW 18:42:49 26° NNE 18:44:16 18° ENE
Cosmos 1125 Rocket 3.5 18:39:47 10° S 18:45:01 63° ESE 18:50:16 10° NNE
Cosmos 1536 Rocket 3.7 18:41:16 10° N 18:45:40 53° E 18:50:02 10° SSE
SJ-6B 4.1 18:48:31 19° ENE 18:49:00 19° ENE 18:51:46 10° NNE
CZ-4 R/B 2.5 18:47:05 10° S 18:51:09 48° W 18:55:13 10° NNW
Cosmos 2150 Rocket 4.3 18:46:34 10° SSW 18:51:56 77° WNW 18:57:25 10° NNE
SJ-11-01 4.2 18:47:27 10° SSE 18:52:09 79° ENE 18:56:52 10° N
CZ-2C R/B 3.3 18:47:50 10° SSE 18:53:10 84° WSW 18:58:49 10° NNW
Cosmos 1464 Rocket 4.0 18:47:12 10° S 18:53:20 84° W 18:59:33 10° N
Okean-O 4.1 18:50:52 10° SSW 18:55:01 40° W 18:59:12 10° NNW
Cosmos 2285 Rocket 4.0 18:49:28 10° S 18:55:39 62° ESE 19:01:55 10° NNE
USA 238 DEB 3.9 18:48:30 10° NW 18:55:48 84° NE 19:03:15 10° SE
USA 238 3.9 18:48:37 10° NW 18:55:55 83° NE 19:03:18 11° SE
Cosmos 1674 3.0 18:54:17 10° N 18:58:00 45° ENE 19:00:17 20° SE
Cosmos 1092 Rocket 4.3 18:53:14 10° N 18:59:05 42° ENE 19:04:17 13° SE
MOS 1 Rocket 3.0 19:00:18 10° NNE 19:04:40 87° ESE 19:08:56 10° SSW
TSX-5 3.9 19:03:25 10° S 19:06:58 50° ESE 19:11:26 10° NE
ARGOS 3.1 19:03:26 10° SSE 19:08:46 78° ENE 19:14:10 10° N
Cosmos 1048 Rocket 4.3 19:08:08 10° NNW 19:13:27 71° WSW 19:18:47 10° S
Cosmos 1733 3.4 19:13:47 39° SE 19:14:29 44° E 19:18:08 10° NNE
CZ-2C R/B 2.8 19:09:35 10° NNE 19:15:02 52° E 19:20:29 10° S
Cosmos 2151 Rocket 4.3 19:10:50 10° SSW 19:15:14 57° W 19:19:41 10° N
HJ-1C 4.4 19:12:42 10° S 19:15:52 45° W 19:19:04 10° NNW
IRIS 4.0 19:13:58 10° WSW 19:17:54 73° S 19:18:07 68° SE
Lacrosse 5 rocket 4.0 19:16:48 10° NNW 19:18:33 12° N 19:20:19 10° NNE
NOSS 3-2 (A) 4.4 19:12:39 10° NW 19:20:18 69° WSW 19:28:48 10° SSE
Cosmos 2082 Rocket 3.8 19:17:14 10° N 19:20:49 17° NE 19:21:17 17° NE
Shenzhou-11 Module 3.6 19:19:42 10° WSW 19:20:33 20° WSW 19:20:33 20° WSW
BREEZE-M DEB (TANK) 3.2 19:19:30 10° WNW 19:22:51 80° SSW 19:27:36 26° SE
DMSP B5D2-2 4.1 19:19:40 10° NNE 19:24:51 53° E 19:29:59 10° S
Meteor 1-15 Rocket 4.3 19:20:12 10° SSW 19:25:50 78° W 19:31:36 10° N
Cosmos 494 Rocket 4.0 19:20:59 10° NNW 19:26:16 84° WSW 19:29:53 21° SSE
Cosmos 1805 3.2 19:22:27 10° S 19:26:21 86° W 19:30:17 10° N
OBJECT-B 3.2 19:28:48 14° NNE 19:28:48 14° NNE 19:29:28 10° NNE
Ariane Rocket 2.9 19:28:06 30° SSE 19:30:40 73° ENE 19:35:45 10° N
SL-08 RB Rocket 3.6 19:27:52 23° SSE 19:30:44 88° WSW 19:35:18 10° NNW
Milstar 3 Cent rocket 3.7 19:25:55 10° SW 19:31:23 22° S 19:32:39 21° SSE
H-2A R/B 3.0 19:27:23 10° S 19:32:10 47° W 19:37:06 10° NNW
USA 234 4.0 19:38:13 31° SE 19:38:13 31° SE 19:42:55 10° S
Cosmos 1269 Rocket 3.9 19:32:54 10° NNW 19:38:14 69° ENE 19:39:33 49° SE
KORONAS-FOTON 4.5 19:35:41 10° NNW 19:39:32 55° W 19:41:31 26° SSW
MetOp-A 4.0 19:40:20 42° SSE 19:42:11 75° ENE 19:47:32 10° N
USA 186 2.4 19:42:34 54° WNW 19:42:34 54° WNW 19:45:34 10° NNW
Cosmos 1626 3.1 19:39:37 10° N 19:42:02 37° NNE 19:42:02 37° NNE
Cosmos 1844 Rocket 4.4 19:40:08 10° WSW 19:45:07 33° WNW 19:50:09 10° N
COSMOS 2406 3.3 19:41:48 10° NNW 19:47:23 55° ENE 19:47:55 53° E
ISS -1.2 19:45:28 10° NW 19:47:33 15° N 19:47:46 15° N
Cosmos 2278 Rocket 3.2 19:43:29 10° S 19:51:32 31° NE 19:54:30 10° NNE
IRS-1A Rocket 4.4 19:47:48 25° S 19:51:26 77° WSW 19:57:19 10° NNW
Meteor 1-22 Rocket 4.3 19:47:47 10° S 19:53:40 89° E 19:59:46 10° N
Lacrosse 4 Rocket 3.5 19:51:26 10° N 19:52:52 17° NNE 19:52:52 17° NNE
Meteor 2-5 Rocket 3.9 19:52:11 10° NNW 19:57:52 71° W 20:00:46 30° S
NOSS 3-2 (C) 4.4 19:50:57 10° NW 19:58:34 63° WSW 20:03:38 26° S
Okean 1 Rocket 4.3 19:54:44 10° SSW 19:58:59 42° WNW 20:03:16 10° N
Meteor 1-24 Rocket 3.6 19:54:34 10° N 20:00:12 88° W 20:01:38 53° S
NOSS 3-4 (A) 3.8 19:54:30 10° SW 20:00:19 61° NW 20:06:32 10° NNE
NOSS 3-4 (C) 3.8 19:54:36 10° SW 20:00:25 62° NW 20:06:39 10° NNE
Resurs 01 Rocket 3.1 20:03:26 27° NNE 20:03:26 27° NNE 20:05:42 10° N
SL-14 R/B 4.4 19:59:19 10° N 20:01:55 40° NNW 20:01:55 40° NNW
Cosmos 1833 Rocket 2.8 20:06:52 10° NNW 20:11:54 61° NNE 20:11:54 61° NNE
CENTAUR R/B 3.8 20:09:22 10° NW 20:17:22 53° WSW 20:22:00 28° S
SPOT 3 Rocket 3.8 20:20:50 64° NNW 20:20:50 64° NNW 20:25:12 10° NNW
ATLAS 2AS CENTAUR R/B 3.5 20:15:12 10° SW 20:23:00 58° NW 20:30:47 10° NNE
ATLAS 3B R/B 2.6 20:22:53 10° NNW 20:29:49 78° NE 20:29:50 78° ENE
Cosmos 1655 Rocket 4.3 20:32:53 10° N 20:37:50 57° N 20:37:50 57° N
Lacrosse 5 rocket 4.2 20:55:11 10° NNW 20:56:20 16° NNW 20:56:20 16° NNW
Cosmos 2082 Rocket 3.5 20:59:58 10° NNW 21:03:08 35° NNW 21:03:08 35° NNW
Cosmos 2278 Rocket 4.2 21:33:01 24° WNW 21:33:25 24° NW 21:37:56 10° N
